TimeCST,TemperatureF,Dew PointF,Humidity,Sea Level PressureIn,VisibilityMPH,Wind Direction,Wind SpeedMPH,Gust SpeedMPH,PrecipitationIn,Events,Conditions,WindDirDegrees,DateUTC
12:00 AM,67,65,89,30.06,6,NW,3.5,,,,Haze,310,2012-11-18 06:00:00
12:00 AM,66.2,64.4,94,30.04,6.2,South,3.5,-,N/A,,Partly Cloudy,170,2012-11-18 06:00:00
6:00 AM,70,66,83,30.05,1,Calm,Calm,,,Rain,Drizzle,190,2012-11-18 12:00:00
6:00 AM,69.8,66.2,88,30.04,0.6,South,8.1,-,N/A,,Drizzle,180,2012-11-18 12:00:00
7:00 AM,68.0,66.2,94,30.06,2.5,South,8.1,-,N/A,,Overcast,180,2012-11-18 13:00:00
8:00 AM,71.6,68.0,88,30.06,6.2,South,6.9,-,N/A,,Mostly Cloudy,190,2012-11-18 14:00:00
9:00 AM,73,69,83,30.11,6,SSW,6.9,,,,Haze,200,2012-11-18 15:00:00
9:00 AM,73.4,69.8,88,30.06,6.2,SSW,6.9,-,N/A,,Mostly Cloudy,200,2012-11-18 15:00:00
10:00 AM,77.0,69.8,78,30.09,6.2,SSW,11.5,-,N/A,,Mostly Cloudy,210,2012-11-18 16:00:00
11:00 AM,77.0,69.8,78,30.09,6.2,SW,11.5,-,N/A,,Mostly Cloudy,230,2012-11-18 17:00:00
12:00 PM,79,67,58,30.08,12,West,9.2,,,,Haze,260,2012-11-18 18:00:00
12:00 PM,78.8,66.2,65,30.06,6.2,West,9.2,-,N/A,,Scattered Clouds,260,2012-11-18 18:00:00
1:00 PM,80.6,64.4,58,30.04,6.2,West,9.2,-,N/A,,Scattered Clouds,280,2012-11-18 19:00:00
2:00 PM,78.8,66.2,65,30.04,6.2,WSW,8.1,-,N/A,,Scattered Clouds,250,2012-11-18 20:00:00
3:00 PM,77,67,64,30.04,6,West,5.8,,,,Haze,260,2012-11-18 21:00:00
3:00 PM,77.0,68.0,74,30.04,6.2,West,5.8,-,N/A,,Mostly Cloudy,260,2012-11-18 21:00:00
4:00 PM,78.8,64.4,61,30.04,6.2,West,5.8,-,N/A,,Scattered Clouds,270,2012-11-18 22:00:00
5:00 PM,75.2,66.2,73,30.04,6.2,SSW,4.6,-,N/A,,Mostly Cloudy,200,2012-11-18 23:00:00
6:00 PM,72,65,74,30.06,6,South,5.8,,,,Haze,170,2012-11-19 00:00:00
6:00 PM,71.6,66.2,83,30.04,6.2,South,5.8,-,N/A,,Mostly Cloudy,170,2012-11-19 00:00:00
7:00 PM,69.8,66.2,88,30.06,6.2,SW,3.5,-,N/A,,Scattered Clouds,220,2012-11-19 01:00:00
8:00 PM,68.0,62.6,83,30.09,6.2,South,4.6,-,N/A,,Partly Cloudy,170,2012-11-19 02:00:00
9:00 PM,70,61,67,30.11,6,SSW,5.8,,,,Haze,200,2012-11-19 03:00:00
9:00 PM,69.8,60.8,73,30.09,6.2,SSW,5.8,-,N/A,,Partly Cloudy,200,2012-11-19 03:00:00
10:00 PM,66.2,60.8,83,30.09,6.2,Calm,Calm,-,N/A,,Partly Cloudy,0,2012-11-19 04:00:00
11:00 PM,69.8,59.0,68,30.06,6.2,South,5.8,-,N/A,,Partly Cloudy,180,2012-11-19 05:00:00